{"data":{"norad_id":42692,"intl_designator":"2017-023B","name":"SGDC","alt_names":[],"object_type":"PAYLOAD","status":"ACTIVE","operator":null,"country":"BRAZ","launch_date":"2017-05-04","launch_site_code":"FRGUI","launch_vehicle":null,"mission":null,"orbit_class":"UNKNOWN","rcs_meters":null,"size_class":null,"mass_kg":null,"dimensions":null,"purposes":["comms"],"wikipedia_slug":null,"has_3d_model":false,"image_url":null,"decayed_at":null,"tle_current":{"epoch":"2026-05-24T12:50:59.665920Z","epoch_age_seconds":125910,"freshness":"FRESH","line1":"1 42692U 17023B   26144.53541280 -.00000254  00000+0  00000+0 0  9991","line2":"2 42692   0.0412  93.0995 0002823 338.4864 288.4407  1.00273015 33174","mean_motion":1.00273015,"eccentricity":0.0002823,"inclination_deg":0.0412,"raan_deg":93.0995,"arg_perigee_deg":338.4864,"mean_anomaly_deg":288.4407,"bstar":0,"rev_number":3317,"period_min":1436.0792881315,"perigee_km":35774.347144572,"apogee_km":35798.153157558,"semimajor_km":42164.387151065,"source":"CELESTRAK","updated_at":"2026-05-25T13:38:14.043604Z"}}}